FW0984 Weather Reports


time (UTC)temp
C
wind
direction
speed
KPH
gust
KPH
rain 1hr
cm
rain 24hr
cm
rain mn
cm
humidity
%
barometer
mb
20260508230058 18 257 0.0 3.2 0.00 0.00 0.00 49 1010.9
20260508224549 18 259 0.0 0.0 0.00 0.00 0.00 47 1010.7
20260508223049 18 252 0.0 1.6 0.00 0.00 0.00 45 1010.7
20260508221550 19 252 0.0 3.2 0.00 0.00 0.00 45 1010.7
20260508220047 19 259 0.0 3.2 0.00 0.00 0.00 45 1010.8
20260508214547 19 254 1.6 6.4 0.00 0.00 0.00 45 1010.8
20260508213046 19 258 1.6 3.2 0.00 0.00 0.00 45 1010.9
20260508211544 18 256 0.0 4.8 0.00 0.00 0.00 45 1011.0
20260508210042 19 250 0.0 4.8 0.00 0.00 0.00 45 1011.4
20260508204541 19 249 0.0 4.8 0.00 0.00 0.00 44 1011.8
20260508203039 19 256 0.0 3.2 0.00 0.00 0.00 42 1011.7
20260508201538 19 263 1.6 6.4 0.00 0.00 0.00 42 1011.9
20260508200047 19 260 0.0 6.4 0.00 0.00 0.00 42 1012.0
20260508194535 20 260 1.6 4.8 0.00 0.00 0.00 40 1012.2
20260508193035 20 274 1.6 8.0 0.00 0.00 0.00 40 1012.1
20260508191533 20 235 0.0 4.8 0.00 0.00 0.00 45 1012.3
20260508190036 20 250 1.6 8.0 0.00 0.00 0.00 41 1012.6
20260508184533 20 264 1.6 4.8 0.00 0.00 0.00 43 1012.9
20260508183027 20 254 3.2 8.0 0.00 0.00 0.00 40 1013.2
20260508181521 20 252 3.2 9.7 0.00 0.00 0.00 44 1013.3
20260508180019 19 273 1.6 6.4 0.00 0.00 0.00 45 1013.6
20260508174524 18 240 0.0 4.8 0.00 0.00 0.00 44 1014.0
20260508173016 19 260 0.0 6.4 0.00 0.00 0.00 45 1014.2
20260508171513 19 253 3.2 11.3 0.00 0.00 0.00 42 1014.5
20260508170010 20 247 1.6 8.0 0.00 0.00 0.00 43 1014.7
20260508164511 19 256 0.0 6.4 0.00 0.00 0.00 47 1015.0
20260508163004 18 256 1.6 6.4 0.00 0.00 0.00 47 1015.2
20260508161602 18 260 3.2 8.0 0.00 0.00 0.00 47 1015.4
20260508160059 18 248 0.0 4.8 0.00 0.00 0.00 47 1015.6
20260508154557 18 254 0.0 6.4 0.00 0.00 0.00 51 1015.7
20260508153050 17 257 1.6 4.8 0.00 0.00 0.00 49 1015.9
20260508151546 17 269 1.6 4.8 0.00 0.00 0.00 52 1016.0
20260508150043 16 255 1.6 4.8 0.00 0.00 0.00 53 1016.2
20260508144538 16 259 0.0 3.2 0.00 0.00 0.00 52 1016.2
20260508143032 15 261 1.6 4.8 0.00 0.00 0.00 55 1016.4
20260508141528 14 257 0.0 3.2 0.00 0.00 0.00 62 1016.7
20260508140023 12 263 1.6 8.0 0.00 0.00 0.00 65 1016.7
20260508134519 11 252 0.0 0.0 0.00 0.00 0.00 70 1016.8
20260508133021 10 237 0.0 0.0 0.00 0.00 0.00 76 1016.9
20260508131510 8 238 0.0 0.0 0.00 0.00 0.00 78 1016.9
20260508130005 8 223 0.0 0.0 0.00 0.00 0.00 80 1016.9
20260508124502 7 198 0.0 1.6 0.00 0.00 0.00 81 1016.8
20260508123109 7 213 0.0 0.0 0.00 0.00 0.00 86 1016.8
20260508121603 6 213 0.0 0.0 0.00 0.00 0.00 90 1016.8
20260508120057 6 140 0.0 0.0 0.00 0.00 0.00 94 1016.8
20260508114550 6 140 0.0 0.0 0.00 0.00 0.00 94 1016.7
20260508113051 5 107 0.0 0.0 0.00 0.00 0.00 94 1016.5
20260508111548 5 107 0.0 0.0 0.00 0.00 0.00 94 1016.5
20260508110049 5 137 0.0 1.6 0.00 0.00 0.00 94 1016.3
20260508104615 5 138 0.0 0.0 0.00 0.00 0.00 93 1016.4
20260508103047 4 80 0.0 0.0 0.00 0.00 0.00 93 1016.4
20260508101549 4 108 0.0 0.0 0.00 0.00 0.00 93 1016.3
20260508100042 3 108 0.0 0.0 0.00 0.00 0.00 93 1016.3
20260508094546 3 108 0.0 0.0 0.00 0.00 0.00 92 1016.4
20260508093041 3 108 0.0 0.0 0.00 0.00 0.00 92 1016.3
20260508091539 3 108 0.0 0.0 0.00 0.00 0.00 92 1016.4
20260508090045 3 108 0.0 0.0 0.00 0.00 0.00 92 1016.3
20260508084538 3 108 0.0 0.0 0.00 0.00 0.00 91 1016.1
20260508083051 3 108 0.0 0.0 0.00 0.00 0.00 90 1016.1
20260508081549 3 108 0.0 0.0 0.00 0.00 0.00 90 1016.0
20260508080034 3 108 0.0 0.0 0.00 0.00 0.00 91 1016.2
20260508074534 3 108 0.0 0.0 0.00 0.00 0.00 91 1016.1
20260508073035 4 108 0.0 0.0 0.00 0.00 0.00 90 1016.1
20260508071531 4 108 0.0 0.0 0.00 0.00 0.00 91 1016.1
20260508070050 4 108 0.0 0.0 0.00 0.00 0.00 90 1016.1
20260508064532 4 108 0.0 0.0 0.00 0.00 0.00 90 1016.5
20260508063027 4 108 0.0 0.0 0.00 0.00 0.00 89 1016.7
20260508061525 4 108 0.0 0.0 0.00 0.00 0.00 88 1016.7
20260508060023 5 108 0.0 0.0 0.00 0.00 0.00 88 1016.8
20260508054522 5 108 0.0 0.0 0.00 0.00 0.00 87 1016.8
20260508053022 5 108 0.0 0.0 0.00 0.00 0.00 87 1016.7
20260508051519 5 108 0.0 0.0 0.00 0.00 0.00 86 1016.6
20260508050021 5 108 0.0 0.0 0.00 0.00 0.00 85 1016.7
20260508044516 5 108 0.0 0.0 0.00 0.00 0.00 83 1016.7
20260508043018 5 108 0.0 0.0 0.00 0.00 0.00 85 1016.7
20260508041512 5 108 0.0 0.0 0.00 0.00 0.00 84 1016.5
20260508040019 6 108 0.0 0.0 0.00 0.00 0.00 81 1016.5
20260508034513 6 108 0.0 0.0 0.00 0.00 0.00 84 1016.5
20260508033010 6 113 0.0 0.0 0.00 0.00 0.00 82 1016.6
20260508031518 6 180 0.0 0.0 0.00 0.00 0.00 82 1016.4
20260508030009 6 180 0.0 0.0 0.00 0.00 0.00 81 1016.6
20260508024508 7 180 0.0 0.0 0.00 0.00 0.00 80 1016.6
20260508023012 7 180 0.0 0.0 0.00 0.00 0.00 77 1016.4
20260508021506 7 180 0.0 0.0 0.00 0.00 0.00 73 1016.4
20260508020007 8 180 0.0 0.0 0.00 0.00 0.00 67 1016.5
20260508014510 9 180 0.0 0.0 0.00 0.00 0.00 66 1016.4
20260508013006 10 180 0.0 0.0 0.00 0.00 0.00 60 1016.4
20260508011506 10 180 0.0 0.0 0.00 0.00 0.00 59 1016.2
20260508010005 11 206 0.0 0.0 0.00 0.00 0.00 52 1016.1
20260508004507 12 169 0.0 0.0 0.00 0.00 0.00 52 1016.1
20260508003005 12 176 0.0 0.0 0.00 0.00 0.00 49 1016.1
20260508001504 12 232 0.0 1.6 0.00 0.00 0.00 46 1015.8
20260508000004 13 191 0.0 3.2 0.00 0.00 0.00 47 1015.8
20260507234504 13 297 0.0 0.0 0.00 0.00 0.00 45 1015.7
20260507233003 13 188 0.0 0.0 0.00 0.00 0.00 43 1015.6